Snowfall_Accumulation
0.0 0.0 0.0 0.0 0.0 0.0 0.0 0.0 0.0 0.0 0.0 0.0 0.0 0.0 0.0 0.0 0.0 0.0 0.0 nan nan nan nan nan nan nan nan nan nan nan nan nan nan nan nan nan nan nan
0.0 0.0 0.0 0.0 0.0 0.0 0.0 0.0 0.0 0.0 0.0 0.0 0.0 0.0 0.0 0.0 0.0 0.0 0.0 nan nan nan nan nan nan nan nan nan nan nan nan nan nan nan nan nan nan nan
0.0 0.0 0.0 0.0 0.0 0.0 0.0 0.0 0.0 0.0 0.0 0.0 0.0 0.0 0.0 0.0 0.0 0.0 0.0 0.0 0.0 nan nan nan nan nan nan nan nan nan nan nan nan nan nan nan nan nan
0.0 0.0 0.0 0.0 0.0 0.0 0.0 0.0 0.0 0.0 0.0 0.0 0.0 0.0 0.0 0.0 0.0 0.0 0.0 0.0 0.0 nan nan nan nan nan nan nan nan nan nan nan nan nan nan nan nan nan
0.0 0.0 0.0 0.0 0.0 0.0 0.0 0.0 0.0 0.0 0.0 0.0 0.0 0.0 0.0 0.0 0.0 0.0 0.0 0.0 0.0 nan nan nan nan nan nan nan nan nan nan nan nan nan nan nan nan nan
0.0 0.0 0.0 0.0 0.0 0.0 0.0 0.0 0.0 0.0 0.0 0.0 0.0 0.0 0.0 0.0 0.0 0.0 0.0 0.0 0.0 0.0 nan nan nan nan nan nan nan nan nan nan nan nan nan nan nan nan
0.0 0.0 0.0 nan nan nan 0.0 0.0 0.0 0.0 0.0 0.0 0.0 0.0 0.0 0.0 0.0 0.0 0.0 0.0 0.0 0.0 0.0 0.0 0.0 0.0 0.0 nan nan nan nan nan nan nan nan nan nan nan
0.0 0.0 0.0 0.0 0.0 nan nan nan nan 0.0 0.0 0.0 0.0 0.0 0.0 0.0 0.0 0.0 0.0 0.0 0.1 0.0 0.0 0.0 0.0 0.0 0.0 0.0 nan nan nan nan nan nan nan nan nan nan
0.0 0.0 0.0 0.0 nan 0.0 nan nan nan nan nan 0.0 0.0 0.0 0.0 0.0 0.0 0.0 0.0 0.0 0.0 0.0 0.0 0.0 0.0 0.0 0.0 0.0 nan nan nan nan nan nan nan nan nan nan
0.0 0.0 0.0 0.0 0.0 0.0 0.0 0.0 0.0 0.0 0.0 0.0 0.0 0.0 0.0 0.0 0.0 0.0 0.0 0.0 0.0 0.0 0.0 0.2 0.0 0.0 0.0 0.0 nan nan nan nan nan nan nan nan nan nan
0.0 0.0 0.0 0.0 nan nan 0.0 0.0 0.0 0.0 nan nan nan nan nan nan nan 0.0 0.1 0.2 0.2 0.0 0.0 0.1 0.0 0.0 0.0 0.0 0.0 nan nan nan nan nan nan nan nan nan
0.0 0.0 nan 0.0 nan nan 0.0 0.0 0.0 0.0 0.0 0.0 0.0 0.0 nan nan nan 0.0 0.0 0.3 0.5 0.7 0.0 0.5 0.3 0.4 1.1 0.3 0.0 0.0 0.0 nan nan nan nan nan nan 0.0
0.1 0.0 0.0 nan nan nan nan 0.0 0.0 0.0 0.0 0.0 0.0 0.0 0.0 0.0 0.0 0.0 0.0 0.1 0.6 0.8 0.1 0.5 2.0 1.1 1.9 1.3 0.4 0.3 0.0 0.0 0.0 0.0 nan nan nan 0.0
0.2 0.0 0.0 nan nan nan nan nan nan nan 0.0 0.0 0.0 0.1 0.1 0.2 0.1 0.1 0.0 0.1 0.1 0.1 0.0 0.1 7.1 2.0 5.0 3.8 1.7 0.4 0.5 0.2 0.2 0.3 0.3 nan nan nan
0.1 0.0 nan nan nan nan nan nan nan 0.0 0.0 0.2 0.2 0.3 0.3 0.3 0.2 0.4 0.2 0.1 0.3 0.2 0.0 0.3 2.1 2.5 4.0 4.9 3.4 1.8 1.8 0.7 0.7 1.2 0.7 0.6 0.4 0.2
nan 0.0 nan 0.0 nan nan 0.0 0.0 0.0 0.0 0.0 0.2 0.3 0.4 0.6 0.9 0.8 0.9 2.4 1.9 3.5 2.7 1.1 1.3 1.7 2.0 6.3 2.6 3.0 2.8 1.2 5.1 0.9 0.9 0.9 0.5 0.3 0.2
nan 0.3 0.7 0.3 0.4 0.2 0.3 0.2 0.2 0.2 0.4 0.4 0.7 0.9 1.0 1.0 1.4 1.3 2.3 3.5 5.6 4.6 6.0 4.2 1.5 1.6 2.5 3.0 6.2 1.7 1.5 1.8 0.9 1.5 1.7 1.1 0.3 0.4
1.6 2.2 2.8 2.5 1.7 0.9 0.8 1.1 0.8 0.7 0.7 0.9 1.2 1.3 1.8 2.1 2.8 3.3 3.1 3.4 5.4 4.1 5.5 5.1 6.1 7.4 4.5 2.2 1.8 2.1 1.5 1.9 1.2 1.2 1.3 4.4 1.8 0.3
2.2 2.8 3.7 4.3 4.4 3.2 2.0 1.8 2.2 1.1 0.2 2.0 2.3 2.3 2.5 3.0 3.7 4.5 4.3 3.4 4.5 4.0 4.8 5.7 7.9 9.0 12.7 9.3 1.1 nan 6.0 2.4 2.4 2.0 0.9 2.0 3.4 0.9
3.1 2.9 3.6 4.6 5.5 5.4 4.6 4.0 2.6 2.2 2.1 2.1 2.5 3.0 4.0 5.3 5.8 5.2 4.4 5.9 5.3 6.1 7.0 6.6 8.5 9.7 13.9 12.5 12.1 3.6 nan 3.9 3.7 3.8 4.5 1.0 0.5 nan
3.3 4.6 3.0 4.0 5.9 6.0 5.3 4.5 3.7 3.3 3.2 4.6 3.7 4.1 4.0 4.9 5.0 3.6 3.4 3.0 nan 6.1 9.2 7.0 4.9 nan 11.5 9.6 11.7 2.8 1.4 nan 0.6 6.0 5.3 5.8 3.2 1.2
3.2 3.9 5.0 3.5 4.2 5.7 6.1 6.2 6.9 6.4 5.2 4.3 4.9 4.7 4.0 4.2 5.1 3.7 2.7 4.7 3.8 4.3 7.3 6.5 6.1 7.2 11.6 10.5 9.5 4.8 2.3 0.9 nan nan nan nan 14.4 21.3
3.5 3.5 4.2 4.8 4.0 4.8 6.0 7.6 8.3 8.1 7.1 6.9 7.0 5.7 4.9 7.1 2.7 2.8 3.3 3.8 5.7 7.5 6.8 10.2 8.4 7.5 7.8 9.5 11.0 7.2 4.6 3.1 2.2 2.9 2.4 nan nan nan
Water_Equivalent
0.00 0.00 0.00 0.00 0.00 0.00 0.00 0.00 0.00 0.00 0.00 0.00 0.00 0.00 0.00 0.00 0.00 0.00 0.00 nan nan nan nan nan nan nan nan nan nan nan nan nan nan nan nan nan nan nan
0.00 0.00 0.00 0.00 0.00 0.00 0.00 0.00 0.00 0.00 0.00 0.00 0.00 0.00 0.00 0.00 0.00 0.00 0.00 nan nan nan nan nan nan nan nan nan nan nan nan nan nan nan nan nan nan nan
0.00 0.00 0.00 0.00 0.00 0.00 0.00 0.00 0.00 0.00 0.00 0.00 0.00 0.00 0.00 0.00 0.00 0.00 0.00 0.00 0.00 nan nan nan nan nan nan nan nan nan nan nan nan nan nan nan nan nan
0.00 0.00 0.00 0.00 0.00 0.00 0.00 0.00 0.00 0.00 0.00 0.00 0.00 0.00 0.00 0.00 0.00 0.00 0.00 0.00 0.00 nan nan nan nan nan nan nan nan nan nan nan nan nan nan nan nan nan
0.00 0.00 0.00 0.00 0.00 0.00 0.00 0.00 0.00 0.00 0.00 0.00 0.00 0.00 0.00 0.00 0.00 0.00 0.00 0.00 0.00 nan nan nan nan nan nan nan nan nan nan nan nan nan nan nan nan nan
0.00 0.00 0.00 0.00 0.00 0.00 0.00 0.00 0.00 0.00 0.00 0.00 0.00 0.00 0.00 0.00 0.00 0.00 0.00 0.00 0.00 0.00 nan nan nan nan nan nan nan nan nan nan nan nan nan nan nan nan
0.00 0.00 0.00 nan nan nan 0.00 0.00 0.00 0.00 0.00 0.00 0.00 0.00 0.00 0.00 0.00 0.00 0.00 0.00 0.00 0.00 0.00 0.00 0.00 0.00 0.00 nan nan nan nan nan nan nan nan nan nan nan
0.00 0.00 0.00 0.00 0.00 nan nan nan nan 0.00 0.00 0.00 0.00 0.00 0.00 0.00 0.00 0.00 0.00 0.00 0.02 0.00 0.00 0.00 0.00 0.00 0.00 0.00 nan nan nan nan nan nan nan nan nan nan
0.00 0.00 0.00 0.00 nan 0.00 nan nan nan nan nan 0.00 0.00 0.00 0.00 0.00 0.00 0.00 0.00 0.00 0.00 0.00 0.00 0.00 0.00 0.00 0.00 0.00 nan nan nan nan nan nan nan nan nan nan
0.00 0.00 0.00 0.00 0.00 0.00 0.00 0.00 0.00 0.00 0.00 0.00 0.00 0.00 0.00 0.00 0.00 0.00 0.00 0.00 0.00 0.00 0.00 0.09 0.00 0.00 0.00 0.00 nan nan nan nan nan nan nan nan nan nan
0.00 0.00 0.00 0.00 nan nan 0.00 0.00 0.00 0.00 nan nan nan nan nan nan nan 0.00 0.03 0.09 0.06 0.00 0.00 0.04 0.01 0.01 0.00 0.00 0.00 nan nan nan nan nan nan nan nan nan
0.00 0.00 nan 0.00 nan nan 0.00 0.00 0.00 0.00 0.00 0.00 0.00 0.00 nan nan nan 0.00 0.01 0.12 0.20 0.28 0.02 0.20 0.13 0.15 0.40 0.11 0.01 0.00 0.00 nan nan nan nan nan nan 0.00
0.02 0.00 0.00 nan nan nan nan 0.00 0.00 0.00 0.00 0.00 0.00 0.00 0.00 0.00 0.00 0.00 0.00 0.05 0.23 0.33 0.02 0.22 0.78 0.44 0.70 0.47 0.16 0.11 0.01 0.00 0.00 0.00 nan nan nan 0.00
0.05 0.00 0.00 nan nan nan nan nan nan nan 0.00 0.00 0.00 0.04 0.06 0.07 0.06 0.04 0.00 0.02 0.04 0.03 0.01 0.02 2.66 0.72 1.62 1.09 0.49 0.17 0.17 0.07 0.08 0.12 0.11 nan nan nan
0.01 0.00 nan nan nan nan nan nan nan 0.00 0.00 0.08 0.09 0.12 0.11 0.12 0.07 0.17 0.05 0.05 0.09 0.06 0.00 0.14 0.86 1.00 1.43 1.40 0.90 0.50 0.56 0.24 0.26 0.43 0.25 0.19 0.16 0.09
nan 0.02 nan 0.00 nan nan 0.00 0.00 0.00 0.00 0.02 0.07 0.12 0.14 0.22 0.34 0.30 0.35 0.88 0.71 1.17 0.85 0.33 0.50 0.65 0.74 1.71 0.79 0.87 0.70 0.35 1.34 0.32 0.30 0.28 0.16 0.10 0.07
nan 0.08 0.21 0.09 0.11 0.07 0.11 0.05 0.05 0.08 0.15 0.15 0.25 0.31 0.33 0.35 0.44 0.45 0.77 1.11 1.57 1.21 1.31 1.04 0.37 0.46 0.72 0.83 1.41 0.46 0.39 0.48 0.32 0.51 0.47 0.31 0.12 0.13
0.35 0.50 0.67 0.70 0.51 0.32 0.26 0.37 0.29 0.25 0.25 0.32 0.40 0.43 0.59 0.62 0.83 1.05 1.02 1.05 1.38 1.05 1.21 1.11 1.33 1.43 0.98 0.53 0.55 0.53 0.41 0.50 0.40 0.38 0.38 0.97 0.43 0.10
0.45 0.58 0.73 0.99 1.13 0.99 0.62 0.57 0.67 0.37 0.07 0.73 0.78 0.74 0.81 0.94 1.16 1.31 1.24 0.96 1.09 0.99 1.12 1.24 1.62 1.88 2.09 1.34 0.30 nan 1.37 0.66 0.63 0.48 0.25 0.48 0.73 0.29
0.58 0.54 0.68 0.86 1.18 1.27 1.26 1.17 0.82 0.69 0.70 0.71 0.85 0.98 1.27 1.61 1.66 1.38 1.19 1.47 1.23 1.32 1.45 1.42 1.77 2.19 3.08 2.62 2.02 0.74 nan 0.89 0.85 0.75 0.91 0.26 0.15 nan
0.59 0.80 0.55 0.72 1.12 1.29 1.30 1.40 1.23 1.19 1.19 1.58 1.22 1.36 1.30 1.55 1.39 1.04 0.97 0.79 nan 1.32 1.58 1.24 1.16 nan 2.58 2.00 1.70 0.50 0.34 nan 0.13 1.35 1.20 0.99 0.58 0.25
0.54 0.70 0.89 0.70 0.83 1.18 1.46 1.72 2.06 2.01 1.79 1.42 1.55 1.52 1.29 1.29 1.42 1.02 0.74 1.17 0.82 1.01 1.56 1.45 1.26 1.57 2.13 1.91 1.38 0.67 0.40 0.24 nan nan nan nan 2.69 3.38
0.60 0.60 0.79 0.93 0.87 1.04 1.37 1.91 2.21 2.28 2.00 2.19 2.16 1.74 1.50 1.79 0.77 0.77 0.85 0.89 1.22 1.47 1.33 1.56 1.39 1.35 1.30 1.59 1.71 1.06 0.61 0.45 0.42 0.54 0.54 nan nan nan
SL_Ratio
nan nan nan nan nan nan nan nan nan nan nan nan nan nan nan nan nan nan nan nan nan nan nan nan nan nan nan nan nan nan nan nan nan nan nan nan nan nan
nan nan nan nan nan nan nan nan nan nan nan nan nan nan nan nan nan nan nan nan nan nan nan nan nan nan nan nan nan nan nan nan nan nan nan nan nan nan
nan nan nan nan nan nan nan nan nan nan nan nan nan nan nan nan nan nan nan nan nan nan nan nan nan nan nan nan nan nan nan nan nan nan nan nan nan nan
nan nan nan nan nan nan nan nan nan nan nan nan nan nan nan nan nan nan nan nan nan nan nan nan nan nan nan nan nan nan nan nan nan nan nan nan nan nan
0.0 nan nan nan nan nan nan nan nan nan nan nan nan nan nan nan nan nan nan nan nan nan nan nan nan nan nan nan nan nan nan nan nan nan nan nan nan nan
nan nan nan nan nan nan nan nan nan nan nan nan nan nan nan nan nan nan nan nan nan nan nan nan nan nan nan nan nan nan nan nan nan nan nan nan nan nan
nan nan nan nan nan nan nan nan nan nan nan nan nan nan nan nan nan nan nan nan nan nan nan nan nan nan nan nan nan nan nan nan nan nan nan nan nan nan
10.0 nan nan nan nan nan nan nan nan nan nan nan nan nan nan nan nan nan nan nan 2.5 nan nan nan nan nan nan nan nan nan nan nan nan nan nan nan nan nan
nan nan nan nan nan nan nan nan nan nan nan nan nan nan nan nan nan nan nan nan nan nan nan nan nan nan nan nan nan nan nan nan nan nan nan nan nan nan
nan nan nan nan nan nan nan nan nan nan nan nan nan nan nan nan nan nan nan nan nan nan nan 2.5 nan nan nan nan nan nan nan nan nan nan nan nan nan nan
nan nan nan nan nan nan nan nan nan nan nan nan nan nan nan nan nan nan 2.5 2.5 2.5 nan nan 2.6 2.2 2.7 nan nan nan nan nan nan nan nan nan nan nan nan
nan nan nan nan nan nan nan nan nan nan nan nan nan nan nan nan nan nan 2.5 2.5 2.5 2.6 2.5 2.5 2.5 2.5 2.7 2.6 2.6 nan nan nan nan nan nan nan nan nan
3.6 3.3 nan nan nan nan nan nan nan nan nan nan nan nan nan nan nan nan nan 2.5 2.5 2.5 2.5 2.5 2.5 2.6 2.7 2.8 2.5 2.5 2.7 2.5 nan nan nan nan nan nan
4.2 5.0 nan nan nan nan nan nan nan nan nan nan 1.7 2.5 2.5 2.5 2.5 2.4 nan 2.5 2.5 2.5 2.3 2.4 2.7 2.8 3.1 3.5 3.4 2.5 2.8 2.5 2.5 2.5 2.5 nan nan nan
4.5 5.0 nan nan nan nan nan nan nan nan nan 2.5 2.5 2.5 2.5 2.5 2.5 2.5 3.0 2.9 2.8 3.1 nan 2.5 2.5 2.5 2.8 3.5 3.7 3.5 3.3 2.9 2.9 2.8 3.0 3.0 2.8 2.5
nan 2.5 nan nan nan nan nan nan nan nan 2.6 2.5 2.5 2.6 2.7 2.5 2.6 2.5 2.8 2.7 3.0 3.2 3.4 2.6 2.5 2.7 3.6 3.3 3.5 4.0 3.3 3.8 2.9 3.1 3.0 2.9 3.1 3.1
nan 3.8 3.4 3.4 3.5 3.1 3.0 3.1 3.1 2.5 2.5 2.5 2.7 3.0 3.1 3.0 3.1 2.8 3.0 3.2 3.6 3.8 4.6 4.0 4.2 3.4 3.4 3.6 4.4 3.8 4.0 3.7 2.7 2.9 3.7 3.5 2.7 3.2
4.5 4.5 4.2 3.6 3.4 2.7 3.1 3.1 2.8 2.8 2.9 2.9 3.1 3.0 3.1 3.3 3.4 3.2 3.0 3.3 3.9 4.0 4.5 4.6 4.6 5.2 4.6 4.3 3.3 4.0 3.8 3.8 3.0 3.1 3.5 4.5 4.0 2.9
4.9 4.8 5.1 4.3 3.9 3.2 3.2 3.2 3.2 3.1 3.0 2.8 3.0 3.1 3.1 3.2 3.2 3.5 3.5 3.6 4.1 4.1 4.3 4.6 4.9 4.8 6.1 6.9 3.8 nan 4.4 3.6 3.9 4.3 3.4 4.1 4.6 3.1
5.3 5.5 5.3 5.4 4.7 4.3 3.6 3.4 3.2 3.2 3.0 3.0 3.0 3.1 3.2 3.3 3.5 3.8 3.7 4.1 4.3 4.6 4.8 4.6 4.8 4.4 4.5 4.8 6.0 4.9 nan 4.4 4.3 5.0 5.0 4.0 3.7 nan
5.7 5.7 5.5 5.5 5.2 4.7 4.1 3.2 3.0 2.8 2.7 2.9 3.0 3.0 3.1 3.2 3.6 3.5 3.6 3.7 nan 4.6 5.8 5.7 4.2 nan 4.5 4.8 6.9 5.6 4.1 nan 4.4 4.4 4.4 5.9 5.4 4.7
5.9 5.6 5.6 5.1 5.1 4.8 4.2 3.6 3.3 3.2 2.9 3.0 3.2 3.1 3.1 3.2 3.6 3.6 3.7 4.0 4.6 4.2 4.7 4.5 4.9 4.6 5.4 5.5 6.9 7.1 5.7 4.0 nan nan nan nan 5.4 6.3
5.8 5.7 5.3 5.2 4.6 4.6 4.3 4.0 3.8 3.6 3.6 3.1 3.2 3.3 3.3 3.9 3.5 3.6 3.9 4.3 4.6 5.1 5.1 6.5 6.1 5.6 6.0 5.9 6.4 6.8 7.4 7.0 5.3 5.4 4.4 nan nan nan